Time,TemperatureF,DewpointF,PressureIn,WindDirection,WindDirectionDegrees,WindSpeedMPH,WindSpeedGustMPH,Humidity,HourlyPrecipIn,Conditions,Clouds,dailyrainin,SoftwareType,DateUTC
2013-03-27 00:29:00,36.0,21.8,30.06,NE,45,6.0,17.0,56,0.00,CLR,FEW,0.00,WeatherDisplay:10.37,2013-03-27 00:29:00,
2013-03-27 00:59:00,36.1,21.1,30.05,NE,45,1.0,15.0,54,0.00,CLR,FEW,0.00,WeatherDisplay:10.37,2013-03-27 00:59:00,
2013-03-27 01:29:00,36.1,21.9,30.05,NE,45,1.0,21.0,56,0.00,CLR,FEW,0.00,WeatherDisplay:10.37,2013-03-27 01:29:00,
2013-03-27 01:59:00,34.8,23.5,30.04,NE,45,0.0,8.0,63,0.00,CLR,FEW,0.00,WeatherDisplay:10.37,2013-03-27 01:59:00,
2013-03-27 02:29:00,34.2,25.0,30.03,NE,45,0.0,2.0,69,0.00,CLR,FEW,0.00,WeatherDisplay:10.37,2013-03-27 02:29:00,
2013-03-27 02:59:00,34.7,26.9,30.03,NE,45,0.0,15.0,73,0.00,CLR,FEW,0.00,WeatherDisplay:10.37,2013-03-27 02:59:00,
2013-03-27 03:29:00,34.0,26.6,30.03,NE,45,5.0,17.0,74,0.00,CLR,FEW,0.00,WeatherDisplay:10.37,2013-03-27 03:29:00,
2013-03-27 03:59:00,33.8,27.7,30.02,NE,45,10.0,17.0,78,0.00,CLR,FEW,0.00,WeatherDisplay:10.37,2013-03-27 03:59:00,
2013-03-27 04:29:00,33.8,27.4,30.02,NE,45,7.0,20.0,77,0.00,CLR,FEW,0.00,WeatherDisplay:10.37,2013-03-27 04:29:00,
2013-03-27 04:59:00,34.6,27.5,30.02,NE,45,2.0,12.0,75,0.00,CLR,FEW,0.00,WeatherDisplay:10.37,2013-03-27 04:59:00,
2013-03-27 05:29:00,35.2,28.1,30.03,NE,45,1.0,9.0,75,0.00,CLR,FEW,0.00,WeatherDisplay:10.37,2013-03-27 05:29:00,
2013-03-27 05:59:00,34.5,27.4,30.03,NE,45,0.0,6.0,75,0.00,CLR,FEW,0.00,WeatherDisplay:10.37,2013-03-27 05:59:00,
2013-03-27 06:29:00,34.0,28.8,30.02,NE,45,12.0,22.0,81,0.00,CLR,FEW,0.00,WeatherDisplay:10.37,2013-03-27 06:29:00,
2013-03-27 06:59:00,34.2,29.6,30.03,NE,45,0.0,15.0,83,0.00,CLR,FEW,0.00,WeatherDisplay:10.37,2013-03-27 06:59:00,
2013-03-27 07:29:00,34.0,28.8,30.03,NE,45,0.0,13.0,81,0.00,CLR,FEW,0.00,WeatherDisplay:10.37,2013-03-27 07:29:00,
2013-03-27 08:29:00,34.3,29.4,30.04,NE,45,0.0,2.0,82,0.00,CLR,FEW,0.00,WeatherDisplay:10.37,2013-03-27 08:29:00,
2013-03-27 08:59:00,33.6,29.3,30.04,NE,45,0.0,1.0,84,0.00,CLR,FEW,0.00,WeatherDisplay:10.37,2013-03-27 08:59:00,
2013-03-27 09:29:00,34.6,30.6,30.04,NE,45,0.0,16.0,85,0.00,CLR,FEW,0.00,WeatherDisplay:10.37,2013-03-27 09:29:00,
2013-03-27 09:59:00,35.6,30.9,30.03,NE,45,0.0,13.0,83,0.00,CLR,FEW,0.00,WeatherDisplay:10.37,2013-03-27 09:59:00,
2013-03-27 10:29:00,36.3,31.0,30.03,NE,45,5.0,13.0,81,0.00,CLR,FEW,0.00,WeatherDisplay:10.37,2013-03-27 10:29:00,
2013-03-27 10:59:00,36.9,31.3,30.03,NE,45,2.0,20.0,80,0.00,CLR,FEW,0.00,WeatherDisplay:10.37,2013-03-27 10:59:00,
2013-03-27 11:29:00,37.2,30.3,30.03,NE,45,0.0,13.0,76,0.00,CLR,FEW,0.00,WeatherDisplay:10.37,2013-03-27 11:29:00,
2013-03-27 11:59:00,37.2,29.0,30.03,NE,45,0.0,8.0,72,0.00,CLR,FEW,0.00,WeatherDisplay:10.37,2013-03-27 11:59:00,
2013-03-27 12:29:00,36.3,27.8,30.03,NE,45,0.0,10.0,71,0.00,CLR,FEW,0.00,WeatherDisplay:10.37,2013-03-27 12:29:00,
2013-03-27 12:59:00,36.7,29.2,30.03,NE,45,3.0,12.0,74,0.00,CLR,FEW,0.00,WeatherDisplay:10.37,2013-03-27 12:59:00,
2013-03-27 13:29:00,37.7,30.5,30.03,NE,45,0.0,20.0,75,0.00,CLR,FEW,0.00,WeatherDisplay:10.37,2013-03-27 13:29:00,
2013-03-27 13:59:00,36.7,29.5,30.03,NE,45,0.0,10.0,75,0.00,CLR,FEW,0.00,WeatherDisplay:10.37,2013-03-27 13:59:00,
2013-03-27 14:29:00,38.3,30.4,30.03,NE,45,0.0,14.0,73,0.00,CLR,FEW,0.00,WeatherDisplay:10.37,2013-03-27 14:29:00,
2013-03-27 14:59:00,38.3,29.4,30.02,NE,45,0.0,13.0,70,0.00,CLR,FEW,0.00,WeatherDisplay:10.37,2013-03-27 14:59:00,
2013-03-27 15:29:00,38.5,28.5,30.02,NE,45,0.0,13.0,67,0.00,CLR,FEW,0.00,WeatherDisplay:10.37,2013-03-27 15:29:00,
2013-03-27 15:59:00,37.0,27.8,30.02,NE,45,0.0,8.0,69,0.00,CLR,FEW,0.00,WeatherDisplay:10.37,2013-03-27 15:59:00,
2013-03-27 16:29:00,37.6,29.0,30.02,NE,45,0.0,2.0,71,0.00,CLR,FEW,0.00,WeatherDisplay:10.37,2013-03-27 16:29:00,
2013-03-27 16:59:00,37.9,27.6,30.02,NE,45,0.0,6.0,66,0.00,CLR,FEW,0.00,WeatherDisplay:10.37,2013-03-27 16:59:00,
2013-03-27 17:29:00,38.8,26.5,30.02,NE,45,0.0,11.0,61,0.00,CLR,FEW,0.00,WeatherDisplay:10.37,2013-03-27 17:29:00,
2013-03-27 17:59:00,37.8,27.0,30.03,NE,45,0.0,15.0,65,0.00,CLR,FEW,0.00,WeatherDisplay:10.37,2013-03-27 17:59:00,
2013-03-27 18:29:00,36.5,26.6,30.03,NE,45,0.0,4.0,67,0.00,CLR,FEW,0.00,WeatherDisplay:10.37,2013-03-27 18:29:00,
2013-03-27 18:59:00,36.5,27.3,30.03,NE,45,0.0,11.0,69,0.00,CLR,FEW,0.00,WeatherDisplay:10.37,2013-03-27 18:59:00,
2013-03-27 19:29:00,35.4,26.9,30.04,NE,45,0.0,10.0,71,0.00,CLR,FEW,0.00,WeatherDisplay:10.37,2013-03-27 19:29:00,
2013-03-27 19:59:00,35.4,27.3,30.04,NE,45,0.0,5.0,72,0.00,CLR,FEW,0.00,WeatherDisplay:10.37,2013-03-27 19:59:00,
2013-03-27 20:29:00,35.4,27.3,30.04,NE,45,0.0,13.0,72,0.00,CLR,FEW,0.00,WeatherDisplay:10.37,2013-03-27 20:29:00,
2013-03-27 20:59:00,35.7,27.6,30.03,NE,45,0.0,8.0,72,0.00,CLR,FEW,0.00,WeatherDisplay:10.37,2013-03-27 20:59:00,
2013-03-27 21:30:00,36.3,27.5,30.03,NE,45,0.0,7.0,70,0.00,CLR,FEW,0.00,WeatherDisplay:10.37,2013-03-27 21:30:00,
2013-03-27 22:00:00,35.3,27.5,30.03,NE,45,0.0,16.0,73,0.00,CLR,FEW,0.00,WeatherDisplay:10.37,2013-03-27 22:00:00,
2013-03-27 22:30:00,34.5,27.4,30.03,NE,45,0.0,8.0,75,0.00,CLR,FEW,0.00,WeatherDisplay:10.37,2013-03-27 22:30:00,
2013-03-27 23:00:00,34.5,28.4,30.03,NE,45,3.0,13.0,78,0.00,CLR,FEW,0.00,WeatherDisplay:10.37,2013-03-27 23:00:00,
2013-03-27 23:30:00,35.0,28.8,30.02,NE,45,7.0,16.0,78,0.00,CLR,FEW,0.00,WeatherDisplay:10.37,2013-03-27 23:30:00,